STARLINK-34369

Satellite information

Favourite Embed

Satellite Type and Status

PAYLOADIN ORBIT

Key statistics

Satellite STARLINK-34369 at a glance.

Uptime

188

Days in orbit

Revolutions

≈ 15.0

Per day

Orbit

LEO

Low Earth Orbit

Inclination

70.0

Latest

Satellite identification and parameters

Extended collection of information and parameters for STARLINK-34369.

Object identification

Identified? True

Debris? False

Object name: STARLINK-34369

International designator: 2025-123G

Object number (NORAD): 64297

Object ID (CCSDS): 64297

Country: UNITED STATES OF AMERICA (US)

Current information (Y/N): Y

RCS size: LARGE

Orbital parameters

Period: 95.995 minutes

Inclination: 70.0017 deg

SMA: 6944.801 km

Apoapsis: 575.375 km

Periapsis: 557.957 km

RAAN: 54.9062 deg

Eccentricy: 0.00125403

Argument of periapsis: 268.0433 deg

Mean anomaly: 91.9291 deg

Mean motion: 15.00075371 rev/day

Mean motion (dot): 0.01132652 rev/day2

B* drag term: 0.084367498 1/REarth

Two-line elements (TLE)

Creation date: Dec. 12, 2025, 10:14 a.m.

Reference frame: TEME

Reference center: EARTH

Epoch: Dec. 12, 2025, 6:40 a.m. UTC

TLE line 0: 0 STARLINK-34369

TLE line 1: 1 64297U 25123G 25346.27789513 .01132652 00000-0 84367-1 0 9992

TLE line 2: 2 64297 70.0017 54.9062 0012540 268.0433 91.9291 15.00075371 28526

Live tracking on map

Real-time ground track for satellite STARLINK-34369.

In-orbit conjunctions

There are no conjunctions computed for STARLINK-34369, at the moment. Check back to stay up to date, as we update our databases every day.

Go to all conjunctions

Associated space launch

A batch of 26 satellites for the Starlink mega-constellation - SpaceX's project for space-based Internet communication system.

STARLINK-34369 was lifted into orbit during the mission ‘Falcon 9 Block 5 | Starlink Group 15-8’, on board a Falcon 9 space rocket.

The launch took place on June 8, 2025, 2:20 p.m. from Space Launch Complex 4E.

For more information about the launch, click the button.

Launch to space Falcon 9 Block 5 | Starlink Group 15-8
Falcon 9 Block 5 | Starlink Group 15-8

Agency: SpaceX

Status: Launch Successful

Launch date: June 8, 2025, 2:20 p.m. UTC

Rocket: Falcon 9

Launch pad: Space Launch Complex 4E

Location: Vandenberg SFB, CA, USA

...

Latest news about this satellite

News about space launch
Live coverage: SpaceX to launch 26 Starlink satellites on Falcon 9 rocket from Vandenberg SFB

The mission, dubbed Starlink 15-8, will be SpaceX’s 70th Falcon 9 launch of the year. It’s targeting a liftoff from pad 4 East at 6:34 a.m. PDT (9:34 a.m. EDT, 1334 UTC).

News about space launch
Launch Roundup: Falcon 9 to launch crewed mission, Rocket Lab to launch 65th Electron

SpaceX continues to dominate the launch manifest with five missions this week, including a crewed… The post Launch Roundup: Falcon 9 to launch crewed mission, Rocket Lab to launch 65th Electron appeared first on NASASpaceFlight.com.


Newsletter sign-up

Weekly statistics, charts and insights to help you stay on top of the space industry.